Regional Weather Roundup
Issued by NWS Wakefield, VA

Home | Current Version | Previous Version | Graphics & Text | Print | Product List | Glossary On
Versions: 1 2 3 4 5 6 7 8 9 10 11 12 13 14 15 16 17 18 19 20 21 22 23 24 25 26 27
000
ASUS41 KAKQ 240315
RWRAKQ

REGIONAL WEATHER ROUNDUP
NATIONAL WEATHER SERVICE WAKEFIELD VA
1100 PM EDT THU MAR 23 2017

Note: "fair" indicates few or no clouds below 12,000 feet with no
significant weather and/or obstructions to visibility. * = Denotes
station may not report precipitation (e.g., rain,snow,etc.),
thunder or fog.

VAZ042-051-052>054-056-240400-
NORTHERN VIRGINIA

CITY           SKY/WX    TMP DP  RH WIND       PRES   REMARKS
WASH NATIONAL  CLEAR     40  21  46 S13       30.56R
DULLES         CLEAR     38  18  44 S8        30.52R
FORT BELVOIR   CLEAR     37  21  52 SE6       30.54R
QUANTICO       CLEAR     40  25  55 S12       30.56R
FREDERICKSBRG* CLEAR     38  22  54 SE7       30.55R
STAFFORD*      CLEAR     34  22  59 CALM      30.58R
WARRENTON      CLEAR     36  16  42 SE5       30.51S
CULPEPER*      CLEAR     33  22  64 CALM      30.53R
MANASSAS*      CLEAR     36  21  54 S6        30.53R
LEESBURG*      CLEAR     41  19  42 S7        30.53S
WINCHESTER     CLEAR     36  16  44 S5        30.46S
FRONT ROYAL*     N/A    N/A N/A N/A MISG        N/A
LURAY*         CLEAR     39  21  48 S3        30.46S
$$

VAZ048-049-060>072-079>083-240400-
CENTRAL AND SOUTH CENTRAL VIRGINIA

CITY           SKY/WX    TMP DP  RH WIND       PRES   REMARKS
RICHMOND       CLEAR     37  21  52 SE7       30.55S
CHESTERFIELD*  FAIR      37  10  32 SE8       30.57R
PETERSBURG*    CLEAR     36  20  53 CALM      30.56S
HANOVER        CLEAR     38  19  46 VRB3      30.56S
TAPPAHANNOCK*  CLEAR     34   5  29 SE3       30.56F
QUINTON*       FAIR      37  21  53 SE3       30.56S
CHARLOTTSVILLE CLEAR     41  17  38 CALM      30.49S
GORDONSVILLE*  CLEAR     32  23  71 CALM      30.51R
ORANGE*        CLEAR     32  21  64 CALM      30.53R
LOUISA*        CLEAR     43  19  39 SE5       30.50S
BUMPASS*       FAIR      37  15  42 CALM      30.53R
FARMVILLE*     CLEAR     39  23  53 CALM      30.50F
CREWE*         FAIR      34  24  67 S3        30.52F
FORT PICKETT*  FAIR      36  15  41 S3        30.53S
CHASE CITY*    FAIR      37  20  50 SE3       30.52S
CLARKSVILLE*   FAIR      39  23  52 CALM      30.53R
SOUTH HILL*    CLEAR     33  25  72 CALM      30.59S
LAWRENCEVILLE* FAIR      38  22  52 E5        30.55R
EMPORIA*       CLEAR     36  27  69 SE7       30.59R
$$

VAZ088>098-240400-
SOUTHEAST VIRGINIA

CITY           SKY/WX    TMP DP  RH WIND       PRES   REMARKS
NORFOLK        CLEAR     32  22  66 S6        30.60R
VIRGINIA BEACH CLEAR     34  20  56 S3        30.59S
NORFOLK NAVAL  CLEAR     36  22  56 S7        30.61R
WEST POINT*    CLEAR     35  23  61 SE7       30.59S
SALUDA*        FAIR      34  25  70 S6        30.57S
NEWPORT NEWS   CLEAR     36  23  59 SE5       30.59R
LANGLEY AFB    CLEAR     36  23  58 S8        30.59R
FORT EUSTIS    CLEAR     37  24  57 S10       30.56R
WILLIAMSBURG*  CLEAR     41  28  60 S14       30.59R
HR EXEC AP*    FAIR      30  19  64 E3        30.60R
FRANKLIN*      CLEAR     35  25  66 SE5       30.60S
US460-WAKEFLD  CLEAR     36  24  62 VRB3      30.58R
$$

VAZ020-022-025-037-045-240400-
WEST CENTRAL AND SOUTHWEST VIRGINIA

CITY           SKY/WX    TMP DP  RH WIND       PRES   REMARKS
STAUNTON*      CLEAR     36  18  48 CALM      30.48R
WAYNESBORO*    CLEAR     37  18  46 S3        30.46S
HOT SPRINGS VA CLEAR     36   9  32 S13G18    30.39F
LYNCHBURG      CLEAR     40  20  44 S6        30.50F
DANVILLE       CLEAR     44  21  40 CALM      30.51S
SOUTH BOSTON*  FAIR      40  20  44 CALM      30.52F
MARTINSVILLE   CLEAR     34  21  57 CALM      30.51S
ROANOKE        CLEAR     41  18  39 SE6       30.49S
BLACKSBURG     CLEAR     39  20  47 CALM      30.47F
DUBLIN*        CLEAR     42  23  47 CALM      30.45S
MARION*        CLEAR     42  24  49 NE6       30.43S
HILLSVILLE*    CLEAR     41  22  46 CALM      30.42F
RICHLANDS*     FAIR      47  23  39 CALM      30.35F
WISE*          CLEAR     52  25  35 S13       30.35S
ABINGDON*      CLEAR     51  24  34 SE6       30.37S
$$

MDZ021>025-VAZ099-100-240400-
SOUTHERN MARYLAND AND THE DELMARVA PENINSULA

CITY           SKY/WX    TMP DP  RH WIND       PRES   REMARKS
PATUXENT RIVER CLEAR     35  16  45 SE5       30.58R
BAY BRIDGE APT CLEAR     37  23  56 SE7       30.57F
LEONARDTOWN    CLEAR     32  18  55 CALM      30.59R
DOVER          CLEAR     31  24  75 S6        30.59R
GEORGETOWN     CLEAR     33  23  66 CALM      30.61R
EASTON         CLEAR     34  18  50 CALM      30.62
CAMBRIDGE      CLOUDY    32  21  64 CALM      30.60R
SALISBURY      CLEAR     27  22  81 CALM      30.60R
OCEAN CITY     CLEAR     36  26  67 SW7       30.61R
WALLOPS ISLAND CLEAR     34  27  75 CALM      30.61R
ACCOMACK*      CLEAR     32  26  78 SE5       30.59R
$$

NCZ012>017-030>032-240400-
NORTH CENTRAL AND EASTERN NORTH CAROLINA

CITY           SKY/WX    TMP DP  RH WIND       PRES   REMARKS
ROANOKE RAPIDS FAIR      37  27  65 CALM      30.57R
RALEIGH        CLEAR     45  21  38 SE7       30.54R
ELIZABETH CITY CLEAR     35  28  75 E6        30.60F
AHOSKIE*         N/A     35  28  74 SE3       30.59S
EDENTON*       CLEAR     38  30  73 SE3       30.61R
CURRITUCK*     CLEAR     34  28  80 CALM      30.61S
KILL DEVIL HLS NOT AVBL
MANTEO         CLEAR     35  27  71 E3        30.60F
CAPE HATTERAS  CLEAR     40  31  70 NE5       30.59S
TARBORO*       NOT AVBL
GOLDSBORO      CLEAR     42  32  67 E6        30.56R
WASHINGTON     NOT AVBL
GREENVILLE     CLEAR     41  32  70 SE3       30.57S
NEW BERN       CLEAR     41  34  76 E5        30.59S
WILMINGTON     CLEAR     41  32  70 NE3       30.55S
$$

VAZ048-240400-
ELSEWHERE

CITY           SKY/WX    TMP DP  RH WIND       PRES   REMARKS
HARRISBURG PA  PTCLDY    35  21  56 S6        30.51S
BALTIMORE      PTCLDY    36  23  59 S5        30.55R
ANNAPOLIS      CLEAR     40  24  53 S8        30.56R
ANDREWS AFB    CLEAR     34  19  54 SE8       30.54R
PHILADELPHIA   CLEAR     37  16  42 S7        30.57F
HENDERSON NC   CLEAR     39  16  39 S5        30.53S
GREENSBORO     PTCLDY    45  24  43 S8        30.49R
ROCKY MOUNT    CLEAR     39  28  64 CALM      30.57R
$$

VAZ100-240400-
MARINE

STATION/POSITION TIME  TEMP    WIND        PRES    WAVE   SWELL
                       AIR SEA DIR/SP/G            HT/PER HT/PER
                 (UTC) (F)     (DEG/KT/KT) (MB)    (FT/S) (FT/S)
CAPE MAY NJ      0248   36 42  180/  4/  7 1036.2R
LEWES DE         0248   35 43  200/  4/  5 1036.4R
OCEAN-CITY-INLET 0248   38 43  230/  8/  9 1036.7R
WACHAPREAGUE VA  0248   38 48  180/  7/  9 1035.9R
THOMAS POINT MD  0300   41 43  170/ 16/ 17   N/A
GOOSES REEF MD   0300   41 43  170/ 12/ 16 1035.7    1/ 3
COVE POINT MD    0248   40     190/ 12/ 13 1036.3R
SOLOMONS ISLAND  0248   39 45  150/  6/  7   N/A
BISHOPS HEAD MD  0248   40 45  170/ 11/ 12 1035.9R
PINEY POINT MD   0248          180/ 10/ 11   N/A
POTOMAC MD       0300   40 45  180/  8/ 12 1035.0    1/ 2
CAMBRIDGE MD     0248   36 44  170/  4/  5 1035.2R
LEWISETTA VA     0248   37 47  190/  6/  9 1035.0S
RAPPAHANNOCK LGT 0248          150/ 13/ 14 1036.4R
STINGRAY PT      0250   40     180/ 12/ 16 1035.6R
YORK RVR RNG VA  0248   40     190/ 13/ 15 1035.1R
YORKTOWN VA      0248   38 47  160/  6/  8 1035.6R
JAMESTOWN VA     0300   39 50  150/ 14/ 16   N/A
DOMINION TERM VA 0248   39     160/ 11/ 13 1036.2R
KIPTOPEKE VA     0248      47  150/  8/  9   N/A
CHES BAY BRIDGE  0248   39 47  170/ 11/ 13 1036.0R
CAPE HENRY VA    0248   38     150/  7/  9   N/A
WILLOUBY STN VA  0248   38     170/ 10/ 12 1036.9R
S CRANEY ISL VA  0248   39     160/ 10/ 13 1035.9R
CAPE HENRY BUOY  0242      45                N/A     3/ 7
CAPE CHARLES BUO 0221      45                N/A     2/10
OFFSHORE WE BUOY 0251      45                N/A     3/ 7
64NM E OF VA BCH 0250   42 48   70/  6/  8 1036.0F   4/ 8   3/ 8
DUCK PIER NC     0248   39 48  110/  7/ 10 1035.7F
44100 DUCK FRF   0235      47                N/A     4/ 7   2/11
44056 DUCK FRF   0230      47                N/A     4/ 8
OREGON INLET NC  0242   40 49   50/  5/  8 1036.2S
HATTERAS NC      0248   42 52   40/  7/ 10 1035.4S
DIAMOND SHLS NC  0250   51 71   40/  8/ 14 1035.3F   8/11   7/11
CAPE LOOKOUT NC  0300   45      20/ 10/ 11 1034.5F
$$




USA.gov is the U.S. government's official web portal to all federal, state and local government web resources and services.